EDT,Max TemperatureF,Mean TemperatureF,Min TemperatureF,Max Dew PointF,MeanDew PointF,Min DewpointF,Max Humidity, Mean Humidity, Min Humidity, Max Sea Level PressureIn, Mean Sea Level PressureIn, Min Sea Level PressureIn, Max VisibilityMiles, Mean VisibilityMiles, Min VisibilityMiles, Max Wind SpeedMPH, Mean Wind SpeedMPH, Max Gust SpeedMPH,PrecipitationIn, CloudCover, Events, WindDirDegrees
2013-9-1,82,72,62,72,68,63,100,88,65,29.83,29.80,29.78,10,6,0,7,2,,0.00,5,Fog,241
2013-9-2,80,68,55,70,61,52,100,75,42,29.99,29.88,29.78,10,8,3,17,6,24,0.00,3,,329
2013-9-3,73,62,50,55,52,48,100,75,50,30.09,30.05,29.98,10,10,10,12,3,16,0.00,3,,314
2013-9-4,80,65,50,57,54,50,100,73,37,30.15,30.12,30.08,10,8,0,12,3,21,0.00,0,Fog,284
2013-9-5,77,65,53,57,50,41,100,64,29,30.26,30.21,30.14,10,10,7,10,3,,0.00,1,,59
2013-9-6,78,62,46,59,50,45,93,63,36,30.28,30.21,30.09,10,10,10,8,2,,0.00,0,,148
2013-9-7,87,74,60,68,60,54,83,67,38,30.09,30.02,29.94,10,10,10,13,2,16,0.00,2,Rain,240
2013-9-8,75,68,62,66,64,61,100,84,69,30.06,30.02,29.96,10,8,2,14,4,18,0.00,5,,93
2013-9-9,89,76,62,72,64,54,88,71,52,30.04,29.98,29.91,10,10,5,8,5,17,0.00,2,,162
2013-9-10,95,84,73,72,67,61,88,60,32,30.09,30.03,29.95,10,10,7,15,7,21,0.00,0,,239
2013-9-11,93,82,71,70,67,63,88,67,36,30.11,30.06,29.98,10,10,7,17,7,23,0.00,1,Rain,245
2013-9-12,82,70,59,70,62,52,100,79,39,30.03,29.97,29.88,10,8,2,13,6,24,0.65,5,Rain,292
2013-9-13,64,55,46,52,44,39,87,68,42,30.15,30.10,30.03,10,10,7,17,6,23,0.00,2,,6
2013-9-14,68,52,37,46,41,36,100,72,32,30.23,30.16,30.11,10,9,0,6,1,,0.00,0,Fog,217
2013-9-15,66,55,44,57,48,41,100,78,49,30.13,30.10,30.03,10,10,4,8,2,,0.10,4,Rain,147
2013-9-16,66,58,50,55,51,45,100,79,49,30.35,30.27,30.14,10,8,4,9,4,,0.00,5,,41
2013-9-17,68,56,44,52,46,43,100,73,46,30.38,30.31,30.20,10,10,5,9,5,,0.00,0,,105
2013-9-18,78,64,51,61,53,46,94,67,41,30.20,30.11,30.02,10,10,10,7,3,,0.00,1,Rain,153
2013-9-19,71,68,64,68,66,61,100,95,78,30.07,30.01,29.91,10,7,1,9,3,,0.98,5,Rain,168
2013-9-20,73,68,64,70,66,59,100,88,73,29.93,29.86,29.80,10,9,5,15,6,22,0.03,5,Rain,231
2013-9-21,68,59,48,59,50,45,100,77,46,29.93,29.84,29.77,10,10,7,20,8,26,0.00,4,Rain,306
2013-9-22,64,55,46,50,45,41,100,72,45,30.07,30.01,29.93,10,10,7,10,3,,0.00,4,,19
2013-9-23,66,54,41,46,43,39,100,73,46,30.15,30.11,30.07,10,10,4,10,5,,0.00,0,,102
2013-9-24,68,55,42,48,45,41,100,74,43,30.13,30.06,29.97,10,9,4,12,6,17,0.00,0,,107
2013-9-25,71,58,46,52,49,46,100,75,41,30.00,29.97,29.94,10,8,2,9,5,,0.00,0,,87
2013-9-26,77,60,44,54,49,45,100,73,34,30.13,30.07,29.98,10,8,1,9,3,,0.00,0,,85
2013-9-27,77,60,44,54,49,41,93,67,39,30.22,30.17,30.13,10,10,10,12,5,,0.00,0,,105
2013-9-28,80,65,50,55,52,50,100,67,37,30.18,30.10,30.01,10,10,10,10,6,17,0.00,0,,151
2013-9-29,68,59,48,59,55,46,100,80,56,30.03,30.01,29.98,10,9,3,12,4,16,0.07,5,Rain,316
2013-9-30,69,56,44,55,51,45,100,88,56,30.04,30.00,29.95,10,6,0,7,1,,0.00,3,Fog,211